Location: El Hornillo
(40.2499°N, 5.1036°W)
Time: 18:53:29
(UTC+00:00)

Cosmos 2100 Rocket - Pass Details

Date: 05 August 2024
Orbit: 955 x 1000 km, 82.9° (Epoch: 19 September)

Event Time Altitude Azimuth Distance (km) Brightness Sun altitude
Exits shadow 22:59:29 66° 244° (WSW) 1,061 4.0 -29.6°
Maximum altitude 23:00:02 70° 278° (W) 1,038 4.1 -29.7°
Drops below altitude 10° 23:06:21 10° 3° (N) 2,753 7.1 -30.2°
Sets 23:08:54 0° 5° (N) 3,712 7.9 -30.3°
